HOECHSTEN Weather Reports


time (UTC)temp
C
wind
direction
speed
KPH
gust
KPH
rain 1hr
cm
rain 24hr
cm
rain mn
cm
humidity
%
barometer
mb
20260507180210 11 32 12.9 0.0 0.00 0.00 0.13 73 1012.4
20260507173209 11 19 11.3 0.0 0.00 0.00 0.13 71 1012.2
20260507170210 12 328 19.3 0.0 0.00 0.00 0.13 70 1012.0
20260507163209 12 332 12.9 0.0 0.00 0.00 0.13 68 1012.1
20260507160211 13 320 12.9 0.0 0.00 0.00 0.13 66 1012.0
20260507153210 13 323 14.5 0.0 0.00 0.00 0.13 66 1012.2
20260507150210 12 331 9.7 0.0 0.00 0.00 0.13 71 1012.2
20260507143212 12 246 16.1 0.0 0.00 0.00 0.13 72 1012.2
20260507140210 11 335 20.9 0.0 0.00 0.00 0.13 75 1012.2
20260507133210 12 326 17.7 0.0 0.00 0.00 0.13 73 1012.4
20260507130210 12 240 25.7 0.0 0.00 0.00 0.13 72 1012.1
20260507123210 11 245 19.3 0.0 0.00 0.00 0.13 72 1012.2
20260507120211 11 213 24.1 0.0 0.00 0.00 0.13 74 1012.2
20260507113210 10 341 14.5 0.0 0.00 0.00 0.13 70 1012.4
20260507110210 9 223 12.9 0.0 0.00 0.00 0.13 60 1012.5
20260507103216 8 215 16.1 0.0 0.00 0.00 0.13 54 1012.7
20260507100212 8 216 17.7 0.0 0.00 0.00 0.13 56 1012.6
20260507093210 8 239 17.7 0.0 0.00 0.00 0.13 57 1012.3
20260507090211 7 186 14.5 0.0 0.00 0.00 0.13 57 1012.2
20260507083212 7 195 16.1 0.0 0.00 0.00 0.13 58 1011.9
20260507080211 6 204 14.5 0.0 0.00 0.00 0.13 58 1011.8
20260507073212 6 180 17.7 0.0 0.00 0.00 0.13 58 1011.5
20260507070212 6 200 16.1 0.0 0.00 0.00 0.13 59 1011.2
20260507063211 6 190 24.1 0.0 0.00 0.00 0.13 59 1010.9
20260507060211 6 209 20.9 0.0 0.00 0.00 0.13 59 1010.7
20260507053211 6 252 27.4 0.0 0.00 0.00 0.10 59 1010.4
20260507050213 6 207 20.9 0.0 0.00 0.00 0.03 59 1009.9
20260507043211 6 202 30.6 0.0 0.00 0.00 0.00 59 1009.5
20260507040216 6 211 24.1 0.0 0.00 0.00 0.00 59 1009.3
20260507033211 6 203 29.0 0.0 0.00 0.00 0.00 59 1009.1
20260507030211 6 192 24.1 0.0 0.00 0.00 0.00 59 1009.0
20260507023211 6 211 24.1 0.0 0.00 0.00 0.00 59 1009.0
20260507020211 6 231 19.3 0.0 0.00 0.00 0.00 59 1009.0
20260507013212 6 240 17.7 0.0 0.00 0.00 0.00 59 1008.9
20260507010211 6 238 20.9 0.0 0.00 0.00 0.00 59 1008.8
20260507003209 6 202 22.5 0.0 0.00 0.00 0.00 59 1008.5
20260507000209 6 202 25.7 0.0 0.00 0.00 0.00 60 1008.4
20260506233209 6 199 16.1 0.0 0.00 0.00 0.00 60 1008.2
20260506230209 6 225 19.3 0.0 0.00 0.00 0.00 60 1008.3
20260506223209 6 200 16.1 0.0 0.00 0.00 0.00 60 1008.2
20260506213209 6 248 20.9 0.0 0.00 0.00 0.71 59 1008.0
20260506210210 7 198 20.9 0.0 0.00 0.00 0.71 60 1008.0
20260506203210 7 211 16.1 0.0 0.00 0.00 0.71 60 1007.7
20260506200210 7 196 20.9 0.0 0.00 0.00 0.71 60 1007.4
20260506193215 7 200 19.3 0.0 0.00 0.00 0.71 60 1007.1
20260506190211 7 258 24.1 0.0 0.00 0.00 0.71 60 1006.9
20260506183209 7 204 29.0 0.0 0.00 0.00 0.71 60 1006.3